FENGYUN 1C DEB

Satellite information

Favourite Embed

Satellite Type and Status

DEBRISIN ORBIT

Key statistics

Satellite FENGYUN 1C DEB at a glance.

Uptime

9666

Days in orbit

Revolutions

≈ 14.0

Per day

Orbit

SSO

Sun Synchronous Orbit

Inclination

98.9

Latest

Satellite identification and parameters

Extended collection of information and parameters for FENGYUN 1C DEB.

Object identification

Identified? True

Debris? True

Object name: FENGYUN 1C DEB

International designator: 1999-025BGQ

Object number (NORAD): 31094

Object ID (CCSDS): 31094

Country: PEOPLES REPUBLIC OF CHINA (PRC)

Current information (Y/N): Y

RCS size: SMALL

Orbital parameters

Period: 102.728 minutes

Inclination: 98.8615 deg

SMA: 7265.823 km

Apoapsis: 963.535 km

Periapsis: 811.84 km

RAAN: 168.1084 deg

Eccentricy: 0.01043896

Argument of periapsis: 180.8158 deg

Mean anomaly: 179.2854 deg

Mean motion: 14.01766173 rev/day

Mean motion (dot): 0.00002515 rev/day2

B* drag term: 0.0016058081 1/REarth

Two-line elements (TLE)

Creation date: Oct. 26, 2025, 2:54 a.m.

Reference frame: TEME

Reference center: EARTH

Epoch: Oct. 25, 2025, 9:50 p.m. UTC

TLE line 0: 0 FENGYUN 1C DEB

TLE line 1: 1 31094U 99025BGQ 25298.90979559 .00002515 00000-0 16058-2 0 9996

TLE line 2: 2 31094 98.8615 168.1084 0104390 180.8158 179.2854 14.01766173949499

Live tracking on map

Real-time ground track for satellite FENGYUN 1C DEB.

In-orbit conjunctions

A list of the most updated potential collisions computed for object FENGYUN 1C DEB.

Target Orbit TCA Probability of collision Miss distance Type
COSMOS 1934 LEO 2025-10-04 12:20:42 0.0004357804 636.0 (m) PAYLOAD
FENGYUN 1C DEB SSO 2025-04-05 17:07:20 0.0001056092 106.0 (m) DEBRIS
SL-8 R/B LEO 2024-08-14 23:23:06 0.0002430863 305.0 (m) ROCKET BODY
METEOR 2-11 DEB LEO 2024-06-23 19:05:19 0.0009004827 161.0 (m) DEBRIS

Associated space launch

Chinese polar orbiting meteorological satellite

FENGYUN 1C DEB was lifted into orbit during the mission ‘Long March 4B | Feng Yun 1C’, on board a Long March 4B space rocket.

The launch took place on May 10, 1999, 1:33 a.m. from Launch Complex 7.

For more information about the launch, click the button.

Launch to space Long March 4B | Feng Yun 1C
Long March 4B | Feng Yun 1C

Agency: N/A

Status: Launch Successful

Launch date: May 10, 1999, 1:33 a.m. UTC

Rocket: Long March 4B

Launch pad: Launch Complex 7

Location: Taiyuan Satellite Launch Center, People's Republic of China

...

Latest news about this satellite

There are no fresh news available about this satellite. Check back as we update our databases every day.


Newsletter sign-up

Weekly statistics, charts and insights to help you stay on top of the space industry.